Printer-friendly version

IAU Minor Planet Center

Minor Planet Center

MPEC 2009-U66 : 2009 UK14

The following Minor Planet Electronic Circular may be linked-to from your own Web pages, but must not otherwise be redistributed electronically.


Read MPEC 2009-U65 Read MPEC 2009-U67


M.P.E.C. 2009-U66                                Issued 2009 Oct. 22, 15:16 UT

     The Minor Planet Electronic Circulars contain information on unusual
         minor planets and routine data on comets.  They are published
   on behalf of Commission 20 of the International Astronomical Union by the
          Minor Planet Center, Smithsonian Astrophysical Observatory,
                          Cambridge, MA 02138, U.S.A.

             Prepared using the Tamkin Foundation Computer Network

                              MPC@CFA.HARVARD.EDU
          URL http://www.cfa.harvard.edu/iau/mpc.html  ISSN 1523-6714

                                   2009 UK14

Observations:
     K09U14K* C2009 10 22.24670 01 50 56.50 +13 14 47.0          20.1 V EU066G96
     K09U14K  C2009 10 22.25042 01 50 57.69 +13 15 07.4          20.1 V EU066G96
     K09U14K  C2009 10 22.25419 01 50 58.88 +13 15 27.9          20.0 V EU066G96
     K09U14K  C2009 10 22.25801 01 51 00.10 +13 15 48.7          19.8 V EU066G96
     K09U14K  C2009 10 22.28932 01 51 10.18 +13 18 39.0          19.6 V EU066G96
     K09U14K  C2009 10 22.29644 01 51 12.45 +13 19 17.7          19.5 V EU066G96
     K09U14K  C2009 10 22.30356 01 51 14.72 +13 19 56.4          19.3 V EU066G96
     K09U14K  C2009 10 22.31086 01 51 17.10 +13 20 36.2          19.7 V EU066G96
     K09U14K  C2009 10 22.32155 01 51 20.52 +13 21 33.7          19.6 V EU066G96
     K09U14K  C2009 10 22.33060 01 51 23.47 +13 22 23.3          19.4 V EU066G96
     K09U14K  C2009 10 22.33995 01 51 26.49 +13 23 13.9          19.4 V EU066G96
     K09U14K  C2009 10 22.34925 01 51 29.52 +13 24 04.1          19.4 V EU066G96
     K09U14K  C2009 10 22.36491 01 51 34.66 +13 25 29.2          19.9 V EU066G96
     K09U14K  C2009 10 22.36839 01 51 35.82 +13 25 50.7          20.5 R EU066926
     K09U14K  C2009 10 22.37133 01 51 36.78 +13 26 06.6          20.3 R EU066926
     K09U14K  C2009 10 22.37388 01 51 37.65 +13 26 17.8          19.4 V EU066G96
     K09U14K  C2009 10 22.37427 01 51 37.74 +13 26 22.3          20.3 R EU066926
     K09U14K  C2009 10 22.38394 01 51 41.00 +13 27 12.0          19.6 V EU066G96
     K09U14K  C2009 10 22.39282 01 51 43.95 +13 28 00.3          20.0 V EU066G96

Observer details:
926 Tenagra II Observatory.  Observers P. R. Holvorcem, M. Schwartz.  Measurer
    P. R. Holvorcem.  0.81-m f/7 Ritchey-Chretien + CCD.
G96 Mt. Lemmon Survey.  Observer A. D. Grauer.  Measurers E. C. Beshore,
    A. Boattini, G. J. Garradd, A. R. Gibbs, A. D. Grauer, R. E. Hill,
    R. A. Kowalski, S. M. Larson, R. H. McNaught.  1.5-m reflector + CCD.

Orbital elements:
2009 UK14                                                Earth MOID = 0.0111 AU
Epoch 2010 Jan. 4.0 TT = JDT 2455200.5                  MPC
M  13.92105              (2000.0)            P               Q
n   0.42561527     Peri.   52.61346     +0.19183655     -0.98128174
a   1.7503487      Node    26.34145     +0.88799214     +0.16622387
e   0.4669462      Incl.    2.17998     +0.41793385     +0.09724077
P   2.32           H   25.7           G   0.15           U   9
Residuals in seconds of arc
091022 G96  0.2+  0.1-    091022 G96  0.3+  0.2+    091022 926  0.1+  0.2+
091022 G96  0.1+  0.1+    091022 G96  0.2-  0.4-    091022 G96  0.1+  0.1+
091022 G96  0.2-  0.0     091022 G96  0.1+  0.1+    091022 926  0.0   0.0
091022 G96  0.3-  0.0     091022 G96  0.1-  0.0     091022 G96  0.1+  0.2-
091022 G96  0.3+  0.0     091022 G96  0.2-  0.2-    091022 G96  0.3-  0.0
091022 G96  0.1+  0.0     091022 G96  0.2-  0.0
091022 G96  0.2-  0.0     091022 926  0.3+  0.2+

Ephemeris:
2009 UK14                a,e,i = 1.75, 0.47, 2                   q = 0.9330
Date    TT    R. A. (2000) Decl.     Delta      r     Elong.  Phase     V
2009 10 16    01 26.39   +07 10.6    0.0903   1.087   178.2     1.6    20.9
2009 10 21    01 43.93   +11 34.1    0.0640   1.060   179.0     1.0    20.0
2009 10 26    02 26.04   +21 11.3    0.0402   1.034   169.4    10.2    19.4
2009 10 31    05 02.98   +42 12.8    0.0243   1.010   135.2    43.9    19.3
2009 11 05    09 56.02   +36 21.6    0.0305   0.989    84.8    93.5    21.4
2009 11 10    11 22.52   +22 39.5    0.0509   0.971    66.5   110.8    23.4
2009 11 15    11 52.73   +16 14.6    0.0746   0.956    61.8   114.2    24.4

Sonia Keys                   (C) Copyright 2009 MPC           M.P.E.C. 2009-U66

Read MPEC 2009-U65 Read MPEC 2009-U67

Valid HTML 4.01!